[[{"header":{"parameterUnit":"m.s-1","parameterCategory":1,"la1":30.2991,"la2":30.254,"lo1":-89.0895,"lo2":-89.0444,"dy":0.0017,"dx":0.0017,"nx":28,"ny":28,"refTime":"2024-04-02T09:00:00:Z","depth":0,"parameterNumber":2,"parameterNumberName":"U-component_of_WINDS"},"data":[0,0,0,0,0,0,0,0,0,0,0,0,0,0,0,0,0,0,0,0,0,0,0,0,0,0,0,0,0,0,0,0,0,0,0,0,0,0,0,0,0,0,0,0,0,0,0,0,0,0,0,0,0,0,0,0,0,0,4.9611,4.9612,0,4.9638,4.9638,4.9638,4.9558,4.9556,4.9553,4.9551,4.9577,4.958,4.9583,0,0,0,0,0,0,0,0,0,0,0,0,0,4.9493,4.9495,4.9611,4.9612,4.9612,4.9638,4.9638,4.9638,4.9558,4.9555,4.9552,4.955,4.9576,4.958,4.9583,0,0,0,0,0,0,0,0,0,0,0,0,0,4.9534,4.9496,4.9611,4.9575,4.9572,4.9638,4.9638,4.9638,4.9559,4.9555,4.9552,4.9548,4.9575,4.9579,4.9584,4.9685,0,0,4.9597,4.9599,0,0,0,0,0,0,0,0,4.9532,4.9539,4.958,4.9578,4.9575,4.9591,4.9606,4.9654,4.956,4.9564,4.9551,4.9546,4.9585,4.9588,4.9601,4.9686,4.9687,4.9598,4.96,4.9602,4.9604,0,0,0,0,0,0,0,4.9529,4.9537,4.9622,4.9581,4.9578,4.9558,4.956,4.9614,4.9595,4.9563,4.9558,4.9562,4.9582,4.9597,4.9601,4.9687,4.9598,4.9602,4.9604,4.9606,4.9859,4.9863,0,0,0,0,0,0,4.9531,4.9535,4.9621,4.9622,4.9544,4.9563,4.9565,4.9589,4.9594,4.9591,4.9565,4.9558,4.9591,4.9596,4.9602,4.9722,4.9602,4.9607,4.9609,4.9855,4.986,4.9864,0,0,0,0,0,0,4.9529,4.9539,4.962,4.9577,4.9586,4.9569,4.9597,4.9592,4.9606,4.9595,4.9591,4.9584,4.9588,4.9595,4.9665,4.9721,4.9609,4.9613,4.985,4.9856,4.9862,4.9962,0,0,0,0,0,0,4.9526,4.9539,4.9577,4.9579,4.9589,4.9683,4.96,4.9595,4.9614,4.9605,4.9611,4.9609,4.9586,4.9659,4.967,4.9725,4.9616,4.9845,4.9853,4.986,4.9953,4.997,4.9985,0,0,0,0,0,4.9522,4.9603,4.9579,4.959,4.9636,4.9686,4.9692,4.9664,4.9619,4.9657,4.9651,4.9608,4.9714,4.9667,4.9678,4.9736,4.9841,4.9851,4.986,4.9946,4.9967,4.9985,0,0,0,0,0,0,4.9608,4.9603,4.9576,4.9661,4.9675,4.9673,4.972,4.9687,4.9714,4.9704,4.9669,4.9671,4.9748,4.9749,4.9697,4.9835,4.977,4.9782,4.9832,4.9851,4.9867,4.9865,4.962,0,0,0,0,0,4.9637,4.9678,4.9672,4.9747,4.9755,4.9737,4.9758,4.9736,4.9748,4.9754,4.9752,4.9766,4.9802,4.9827,4.9859,4.9953,4.9954,4.9999,5.0015,5.0028,5.0038,5.009,5.011,4.9894,4.9894,4.9894,0,0,4.9696,4.9699,4.9727,4.9764,4.9772,4.9817,4.9742,4.9792,4.9824,4.9761,4.9827,4.9827,4.984,4.9923,4.996,4.9927,5.0099,5.0039,5.005,5.0053,5.0101,5.0122,5.014,4.99,4.9899,4.9898,0,0,4.9828,4.9834,4.9898,4.9908,4.9922,4.991,4.9926,4.9929,4.9927,4.9993,4.9947,4.9986,5.0048,5.006,5.0075,5.0214,5.0177,5.0226,5.0309,5.0359,5.0376,5.0391,5.0442,5.0461,5.0237,5.0237,5.0237,0,4.99,4.9965,4.9935,4.9989,5.0007,4.9953,5.0018,5.003,5.0053,5.0068,5.003,5.011,5.0115,5.0201,5.0235,5.0248,5.0266,5.0225,5.0376,5.0391,5.0405,5.0453,5.0472,5.0243,5.0242,5.0242,5.0241,0,5.0054,5.01,5.0151,5.0176,5.02,5.0259,5.0239,5.0267,5.0243,5.0235,5.0304,5.0309,5.0343,5.0361,5.0338,5.0445,5.0424,5.0382,5.0316,5.0432,5.0476,5.0494,5.0251,5.0249,5.0247,5.0246,0,0,5.0239,5.0249,5.0268,5.028,5.0293,5.0328,5.0385,5.0419,5.0444,5.0463,5.0511,5.0567,5.0529,5.0545,5.0523,5.0568,5.068,5.0521,5.0521,5.0551,5.0799,5.0831,5.0853,5.0656,5.0659,5.0662,5.0799,0,5.037,5.0469,5.0444,5.0542,5.0585,5.0536,5.0586,5.06,5.0594,5.063,5.0624,5.0664,5.0611,5.0621,5.0663,5.0658,5.0729,5.0647,5.0701,5.0703,5.0699,5.0876,5.0909,5.1038,5.0816,5.0819,5.0821,0,5.0535,5.0562,5.0665,5.0672,5.0689,5.0735,5.0765,5.0799,5.0814,5.0807,5.0828,5.0797,5.0855,5.0789,5.0868,5.0813,5.0834,5.0835,5.0839,5.0843,5.0769,5.0885,5.1078,5.1098,5.0848,5.0846,5.0844,0,5.0661,5.0723,5.0792,5.0804,5.0814,5.0848,5.0854,5.0865,5.0888,5.0914,5.0928,5.0961,5.0979,5.1005,5.0985,5.0938,5.1069,5.1,5.1065,5.1066,5.1094,5.1093,5.1294,5.1107,5.1107,5.1107,5.1106,0,5.081,5.0875,5.085,5.0893,5.0965,5.0937,5.1009,5.1009,5.102,5.1063,5.1022,5.1063,5.1033,5.1072,5.1057,5.1126,5.1134,5.1131,5.1126,5.1135,5.1136,5.1148,5.1138,5.1112,5.1111,5.111,5.1109,0,5.0962,5.0948,5.1021,5.1026,5.1028,5.1082,5.1085,5.1126,5.1118,5.1173,5.1184,5.1172,5.1216,5.1199,5.1245,5.1235,5.1324,5.1307,5.1319,5.1315,5.1381,5.1375,5.1597,5.1625,5.142,5.1422,5.1424,0,5.1058,5.1107,5.1118,5.1144,5.1153,5.1195,5.1218,5.1193,5.1219,5.1242,5.128,5.132,5.1351,5.1424,5.1419,5.1455,5.1439,5.1514,5.1444,5.1452,5.1441,5.1439,5.1444,5.1528,5.1531,5.1533,5.1534,0,5.123,5.1221,5.1257,5.1291,5.132,5.1345,5.1366,5.139,5.1366,5.1398,5.1442,5.1467,5.1515,5.1556,5.1589,5.1595,5.1562,5.1557,5.1574,5.1583,5.1589,5.1588,5.1358,5.1552,5.155,5.1549,5.1548,5.1547,5.1358,5.14,5.1415,5.1456,5.147,5.1492,5.153,5.1528,5.1565,5.1603,5.1586,5.1639,5.1654,5.1694,5.1705,5.1746,5.1717,5.1741,5.1748,5.1754,5.1764,5.1582,5.1752,5.1751,5.1751,5.1751,5.175,0,5.1529,5.1536,5.1575,5.1607,5.164,5.1606,5.1629,5.1659,5.1706,5.1723,5.1755,5.1808,5.1848,5.1848,5.1885,5.1918,5.1904,5.1929,5.1926,5.1929,5.1787,5.1769,5.194,5.194,5.194,5.194,5.194,5.194,5.1621,5.1692,5.1685,5.1762,5.1769,5.182,5.1837,5.1857,5.1871,5.1932,5.1965,5.1965,5.1976,5.2014,5.205,5.2049,5.2065,5.2096,5.209,5.1957,5.1938,5.1921,5.1903,5.21,5.21,5.2228,5.2229,5.223]},{"header":{"parameterUnit":"m.s-1","parameterCategory":1,"la1":30.2991,"la2":30.254,"lo1":-89.0895,"lo2":-89.0444,"dy":0.0017,"dx":0.0017,"nx":28,"ny":28,"refTime":"2024-04-02T09:00:00:Z","depth":0,"parameterNumber":3,"parameterNumberName":"V-component_of_WINDS"},"data":[0,0,0,0,0,0,0,0,0,0,0,0,0,0,0,0,0,0,0,0,0,0,0,0,0,0,0,0,0,0,0,0,0,0,0,0,0,0,0,0,0,0,0,0,0,0,0,0,0,0,0,0,0,0,0,0,0,0,-5.0783,-5.0784,0,-5.0831,-5.0832,-5.0832,-5.0812,-5.0811,-5.081,-5.0809,-5.0854,-5.0856,-5.0859,0,0,0,0,0,0,0,0,0,0,0,0,0,-5.0673,-5.0675,-5.0783,-5.0784,-5.0785,-5.0831,-5.0832,-5.0832,-5.0812,-5.0811,-5.0809,-5.0808,-5.0853,-5.0856,-5.0859,0,0,0,0,0,0,0,0,0,0,0,0,0,-5.0721,-5.0676,-5.0783,-5.078,-5.0781,-5.0831,-5.0832,-5.0832,-5.0812,-5.0811,-5.0809,-5.0807,-5.0853,-5.0856,-5.0859,-5.0914,0,0,-5.087,-5.0871,0,0,0,0,0,0,0,0,-5.0718,-5.0725,-5.078,-5.0781,-5.0781,-5.0814,-5.0809,-5.086,-5.0813,-5.08,-5.0809,-5.0807,-5.0842,-5.0846,-5.0859,-5.0917,-5.0918,-5.087,-5.0872,-5.0873,-5.0874,0,0,0,0,0,0,0,-5.0715,-5.0723,-5.0802,-5.0781,-5.0781,-5.0776,-5.0781,-5.0819,-5.083,-5.0801,-5.08,-5.0806,-5.0842,-5.0855,-5.086,-5.0919,-5.087,-5.0873,-5.0875,-5.0876,-5.1025,-5.1026,0,0,0,0,0,0,-5.0712,-5.072,-5.0801,-5.0804,-5.0745,-5.0779,-5.0785,-5.0805,-5.083,-5.0832,-5.0807,-5.0805,-5.085,-5.0856,-5.0861,-5.0927,-5.0873,-5.0877,-5.0879,-5.1023,-5.1025,-5.1027,0,0,0,0,0,0,-5.0709,-5.0719,-5.0799,-5.0761,-5.0771,-5.0783,-5.0806,-5.0807,-5.082,-5.0834,-5.0836,-5.0819,-5.0849,-5.0856,-5.0902,-5.0928,-5.0878,-5.0881,-5.1021,-5.1023,-5.1026,-5.106,0,0,0,0,0,0,-5.0706,-5.0718,-5.074,-5.0762,-5.0773,-5.0839,-5.0808,-5.0809,-5.0827,-5.0824,-5.0846,-5.0848,-5.0849,-5.0897,-5.0905,-5.0932,-5.0884,-5.1018,-5.1022,-5.1025,-5.1056,-5.1064,-5.107,0,0,0,0,0,-5.0702,-5.0747,-5.0741,-5.0751,-5.0801,-5.0841,-5.0847,-5.0848,-5.0829,-5.085,-5.0859,-5.0847,-5.0924,-5.0901,-5.0911,-5.0939,-5.1016,-5.1021,-5.1025,-5.1053,-5.1062,-5.107,0,0,0,0,0,0,-5.0726,-5.075,-5.0744,-5.0797,-5.0817,-5.0837,-5.0864,-5.0857,-5.0882,-5.0878,-5.0877,-5.0882,-5.0929,-5.0939,-5.0913,-5.0994,-5.0967,-5.0974,-5.0986,-5.0994,-5.1001,-5.0997,-5.0887,0,0,0,0,0,-5.0738,-5.077,-5.0788,-5.0833,-5.0844,-5.0852,-5.087,-5.0869,-5.0889,-5.0897,-5.091,-5.0929,-5.0958,-5.0977,-5.1004,-5.1058,-5.1062,-5.1082,-5.1089,-5.1094,-5.11,-5.1129,-5.1138,-5.1041,-5.1041,-5.1041,0,0,-5.0762,-5.0779,-5.0798,-5.0838,-5.0854,-5.0886,-5.086,-5.0894,-5.0918,-5.0902,-5.0946,-5.0956,-5.0978,-5.1028,-5.105,-5.1037,-5.1127,-5.11,-5.1104,-5.1106,-5.1134,-5.1143,-5.1151,-5.1044,-5.1043,-5.1043,0,0,-5.0822,-5.0838,-5.0878,-5.0894,-5.0919,-5.0924,-5.0934,-5.0956,-5.0962,-5.1006,-5.0995,-5.1022,-5.1072,-5.1088,-5.1103,-5.117,-5.1159,-5.1179,-5.1213,-5.1241,-5.1249,-5.1256,-5.1279,-5.1288,-5.1184,-5.1184,-5.1184,0,-5.0848,-5.0897,-5.0898,-5.0935,-5.0952,-5.0941,-5.0981,-5.0996,-5.1028,-5.104,-5.1025,-5.1088,-5.1101,-5.1155,-5.1171,-5.1184,-5.1194,-5.1176,-5.1248,-5.1255,-5.1261,-5.1283,-5.1292,-5.1186,-5.1186,-5.1186,-5.1185,0,-5.0928,-5.0962,-5.0991,-5.1023,-5.1044,-5.1081,-5.1088,-5.1109,-5.1106,-5.1113,-5.1158,-5.1175,-5.1205,-5.1218,-5.1215,-5.1271,-5.1262,-5.1248,-5.1221,-5.1272,-5.1293,-5.1302,-5.1189,-5.1188,-5.1188,-5.1187,0,0,-5.1003,-5.1037,-5.1047,-5.1062,-5.1089,-5.1114,-5.1151,-5.1182,-5.12,-5.1222,-5.1253,-5.1295,-5.1283,-5.1299,-5.1298,-5.1323,-5.1375,-5.1306,-5.1306,-5.1318,-5.1437,-5.1447,-5.1457,-5.1369,-5.1371,-5.1372,-5.1435,0,-5.1065,-5.1131,-5.1134,-5.1193,-5.1224,-5.1215,-5.1247,-5.1266,-5.1274,-5.1301,-5.1309,-5.1339,-5.132,-5.133,-5.1355,-5.1364,-5.1399,-5.1359,-5.1396,-5.1397,-5.139,-5.1468,-5.1479,-5.1538,-5.1444,-5.1445,-5.1446,0,-5.1146,-5.1172,-5.1235,-5.1258,-5.1271,-5.13,-5.1328,-5.1354,-5.1376,-5.138,-5.1399,-5.1395,-5.1432,-5.1405,-5.1455,-5.1428,-5.1443,-5.145,-5.1452,-5.1455,-5.1424,-5.1472,-5.1557,-5.1566,-5.1459,-5.1458,-5.1457,0,-5.1194,-5.1245,-5.1289,-5.1302,-5.133,-5.135,-5.1362,-5.1383,-5.1401,-5.1426,-5.1438,-5.1466,-5.1482,-5.1503,-5.1507,-5.1486,-5.1557,-5.153,-5.1561,-5.1561,-5.1575,-5.1574,-5.1662,-5.1586,-5.1586,-5.1586,-5.1586,0,-5.1262,-5.1301,-5.1311,-5.1339,-5.1382,-5.1384,-5.1427,-5.1437,-5.1455,-5.1484,-5.1477,-5.1504,-5.1507,-5.1534,-5.1537,-5.1578,-5.1585,-5.1589,-5.1589,-5.1589,-5.1588,-5.1598,-5.1594,-5.1588,-5.1588,-5.1588,-5.1587,0,-5.1323,-5.1331,-5.1379,-5.1402,-5.1408,-5.1439,-5.1458,-5.1484,-5.1491,-5.1527,-5.1536,-5.1547,-5.1579,-5.1585,-5.1622,-5.1624,-5.1673,-5.1669,-5.1666,-5.1665,-5.1695,-5.1692,-5.1792,-5.1805,-5.1722,-5.1722,-5.1723,0,-5.1365,-5.1395,-5.1421,-5.1441,-5.1454,-5.1485,-5.1504,-5.1508,-5.1528,-5.1556,-5.1578,-5.1609,-5.1635,-5.1686,-5.1697,-5.1725,-5.1722,-5.1755,-5.1726,-5.1725,-5.1721,-5.1719,-5.1722,-5.176,-5.1761,-5.1762,-5.1762,0,-5.144,-5.1443,-5.1471,-5.1502,-5.1525,-5.1549,-5.1571,-5.1587,-5.1594,-5.1617,-5.165,-5.167,-5.1708,-5.1739,-5.1768,-5.1779,-5.1772,-5.1772,-5.178,-5.178,-5.1777,-5.1778,-5.168,-5.1769,-5.1768,-5.1768,-5.1768,-5.1767,-5.1492,-5.1518,-5.1541,-5.1573,-5.1591,-5.1612,-5.1637,-5.1649,-5.1677,-5.1709,-5.171,-5.1746,-5.1767,-5.1804,-5.1818,-5.1846,-5.1835,-5.1847,-5.185,-5.1853,-5.1855,-5.1773,-5.1851,-5.1851,-5.185,-5.185,-5.185,0,-5.1566,-5.158,-5.161,-5.1642,-5.1667,-5.166,-5.1684,-5.1705,-5.1738,-5.1758,-5.1784,-5.1822,-5.1852,-5.1866,-5.1895,-5.1915,-5.1912,-5.1922,-5.192,-5.1923,-5.1864,-5.1853,-5.1924,-5.1924,-5.1924,-5.1924,-5.1924,-5.1924,-5.1607,-5.1651,-5.1657,-5.1709,-5.1723,-5.1759,-5.1774,-5.1793,-5.181,-5.1853,-5.1878,-5.1888,-5.1905,-5.1936,-5.1964,-5.1967,-5.1977,-5.1989,-5.1991,-5.1935,-5.1927,-5.192,-5.191,-5.1992,-5.1992,-5.2048,-5.2048,-5.2049]}]]